Flag for Venezuela Weather past 2 weeks in Maracay, Venezuela

Now
79 °F

Heavy rain. Passing clouds.


Feels Like: 82 °F
Forecast: 71 / 87 °F
Wind: 8 mph from Southwest

Location: Valencia Airport

Current Time: Aug 30, 2015 at 11:43:17 AM

Latest Report: Aug 30, 2015 at 10:30 AM


Visibility: 1 mi

Pressure: 30.04 "Hg

Humidity: 84%

Dew point: 73 °F

Location of MaracayLocation

Historic Weather in Maracay — Graph

°F

Maracay temperature yesterday

Maximum temperature yesterday: 93 °F (at 3:30 PM)
Minimum temperature yesterday: 75 °F (at 6:30 AM)
Average temperature yesterday: 85 °F

Past Weeks' High & Low Weather Summary

 TemperatureHumidityPressure
High95 °F (Aug 26, 1:30 PM)100% (Aug 15, 6:30 PM)30.04 "Hg (Aug 15, 6:30 PM)
Low75 °F (Aug 15, 6:30 PM)49% (Aug 16, 3:30 PM)29.83 "Hg (Aug 24, 4:30 PM)
Average83 °F75%29.95 "Hg
* Reported Aug 15 10:30 AM — Aug 30 10:30 AM, Maracay, Weather by CustomWeather, © 2015

Note: Actual official high and low records may vary slightly from our data, if they occured in-between our weather recording intervals... More about our weather records

Advertising

Maracay weather history for previous 24 hours

 ConditionsComfort  
Time TempWeatherWind HumidityBarometerVisibility
10:30 AM
Sun, Aug 30
79 °FHeavy rain. Passing clouds.8 mph84%30.04 "Hg1 mi
9:30 AM86 °FScattered clouds.1 mph62%30.04 "HgN/A
8:30 AM82 °FScattered clouds.3 mph70%30.01 "HgN/A
7:30 AM81 °FScattered clouds.5 mph89%29.98 "HgN/A
6:30 AM77 °FScattered clouds.3 mph89%29.95 "HgN/A
5:30 AM75 °FScattered clouds.No wind94%29.95 "HgN/A
4:30 AM77 °FPassing clouds.2 mph89%29.95 "HgN/A
11:30 PM
Sat, Aug 29
81 °FPassing clouds.1 mph84%29.98 "HgN/A
10:30 PM82 °FPassing clouds.1 mph79%29.98 "HgN/A
9:30 PM82 °FPassing clouds.1 mph79%29.98 "HgN/A
8:30 PM84 °FPassing clouds.5 mph74%29.95 "HgN/A
7:30 PM82 °FPassing clouds.5 mph74%29.92 "HgN/A
6:30 PM86 °FPassing clouds.8 mph62%29.89 "HgN/A
5:30 PM88 °FScattered clouds.8 mph59%29.86 "HgN/A
4:30 PM91 °FScattered clouds.7 mph56%29.86 "HgN/A
3:30 PM93 °FScattered clouds.2 mph53%29.89 "HgN/A
2:30 PM91 °FPartly sunny.6 mph52%29.92 "HgN/A
1:30 PM91 °FScattered clouds.7 mph56%29.95 "HgN/A
12:30 PM91 °FScattered clouds.5 mph56%29.98 "HgN/A
11:30 AM88 °FScattered clouds.3 mph55%30.01 "HgN/A
Weather by CustomWeather, © 2015

See weather overviewHow to use our weather pages